ABS-2A (MONGOLSAT-1) (41588 NORAD) Tracking and Keplerian Element Data

This shows tracking and keplerian element data for the satellite.

Feedback or suggestion? Click here.




ElementValue
Catalog41588
NameABS-2A (MONGOLSAT-1)
Epoch Orbit2306
Epoch Day270.04423329
Epoch Year2022
RAAN187.2133
Inclination0.0274
Eccentricity0.000211
Argument of Perigee261.7352
Mean Anonmoly7.5136
Mean Motion1.00269024
Decay Rate-8E-07
L11 41588U 16038A 22270.04423329 -.00000080 00000+0 00000+0 0 9991
L22 41588 0.0274 187.2133 0002110 261.7352 7.5136 1.00269024 23063

Live tracking and technical data element details for ABS-2A (MONGOLSAT-1) (NORAD 41588). ABS-2A (MONGOLSAT-1) can be tracked NOW for your location showing map with azimuth and elevation plus other details from your city location.

Track the satellite on the map from your city or location and see movement details for azimuth, elevation, latitude, longitude, range, height, and movement on the map or in text.







IsCatalogInMostPopularTable: catalog: 41588, numindb: 621
Update: records affected: 1



GetName: 41588 ABS-2A (MONGOLSAT-1)

Hit Count: updated at: Wed, 28 Sep 2022 23:28:52 GMT